Theta_e
327 327 331 333 331 330 325 321 315 313 312 310 308 307 307 307 307 308 309 309 309 308 307 306 307 306 305 303 301 302 300 305
323 327 330 329 325 322 320 316 312 312 311 307 306 304 304 305 306 307 307 308 308 307 306 305 305 304 303 303 300 301 301 301
324 325 326 325 324 322 318 317 313 313 312 308 306 304 303 304 304 305 306 307 307 306 304 303 303 302 301 300 299 298 298 299
321 322 323 325 322 318 317 315 313 312 311 308 305 303 303 302 302 303 304 306 306 305 304 302 301 300 299 298 298 297 296 296
320 321 318 320 321 320 317 314 313 312 311 307 305 303 301 300 301 302 303 305 304 304 303 301 300 299 299 298 299 297 296 294
318 318 318 319 317 315 314 314 313 313 311 309 304 302 300 301 301 301 301 302 303 302 301 300 299 298 297 296 295 295 294 293
318 319 319 317 314 314 313 314 313 312 311 309 305 301 300 300 300 300 300 300 300 300 300 299 298 297 296 295 294 293 293 293
317 317 315 313 310 312 313 313 311 309 310 307 305 303 301 300 300 300 300 298 297 297 298 298 297 296 296 295 294 293 292 292
317 317 316 312 311 311 313 312 310 308 307 305 304 301 301 301 301 300 299 298 297 298 298 299 298 297 296 295 294 293 292 292
316 316 315 313 312 311 312 311 311 309 307 305 302 301 300 300 300 299 298 298 298 298 298 297 297 296 295 294 293 292 292 292
315 315 314 314 314 314 313 312 310 308 305 305 301 300 300 301 300 299 299 297 297 297 296 296 296 295 294 294 293 292 292 291
313 314 314 313 313 311 309 309 306 303 303 303 300 299 300 300 299 299 298 297 297 297 297 296 296 295 295 294 293 293 292 290
309 311 311 311 309 307 305 305 303 303 302 300 300 299 300 299 299 299 298 297 297 297 296 296 296 295 294 294 294 292 291 289
305 306 307 309 307 304 305 304 304 302 300 299 298 298 299 298 298 298 297 296 295 296 296 295 295 294 294 293 293 292 290 289
302 302 304 306 303 303 303 302 300 300 299 298 297 297 298 298 298 297 296 296 294 294 294 294 294 293 293 294 293 291 290 289
296 298 299 301 300 301 301 301 302 302 300 297 297 297 297 297 297 296 295 295 294 293 292 291 291 292 293 292 292 291 289 288
290 295 297 298 299 299 301 301 302 302 299 297 297 296 296 296 296 294 294 293 292 291 290 290 288 290 291 292 291 290 289 288
289 290 295 298 299 300 300 300 301 300 299 298 297 297 296 296 296 295 292 291 290 288 287 287 287 287 290 291 290 289 288 287
289 290 292 294 299 300 300 300 299 299 298 297 297 297 296 295 295 293 292 290 288 286 285 285 286 287 289 290 289 288 287 286
Wind_Speed
18 18 16 14 11 11 10 8 9 8 7 6 4 4 4 4 3 4 6 5 7 6 4 4 4 4 4 4 5 5 4 8
8 13 13 13 11 13 13 13 10 10 6 5 3 4 2 3 4 5 5 5 6 6 5 5 4 4 4 3 4 7 6 3
13 13 13 15 15 13 11 12 12 8 7 3 4 4 2 3 2 4 5 6 6 6 6 5 5 5 6 5 4 3 3 4
16 16 16 15 16 16 15 14 12 7 8 7 5 5 3 3 2 3 3 6 6 6 6 6 5 4 4 3 4 5 4 4
14 17 15 18 17 13 12 12 11 9 11 8 12 5 5 3 3 3 3 5 6 6 6 6 6 4 6 4 3 3 4 4
20 21 21 18 14 14 12 12 12 11 9 10 8 7 3 4 4 6 5 5 6 6 6 7 6 4 5 6 6 6 3 4
18 17 13 11 9 11 12 14 12 11 11 10 11 12 10 8 6 5 4 3 4 6 7 6 6 6 6 6 6 8 7 7
17 19 17 15 14 13 12 13 12 11 13 12 11 11 11 11 10 7 7 4 3 5 6 6 5 5 6 6 7 8 6 8
23 22 19 18 19 18 17 18 16 15 14 12 11 12 8 7 6 7 5 4 4 5 7 7 7 7 7 7 7 7 8 8
18 18 18 19 19 23 23 19 16 16 16 12 11 11 11 9 9 6 4 6 5 6 7 7 7 7 7 8 7 9 9 8
19 17 19 18 16 12 13 13 13 13 11 12 11 11 10 10 10 9 8 6 6 8 8 7 7 7 7 9 8 6 9 6
16 15 14 15 13 11 11 12 14 13 12 12 12 11 12 12 10 10 10 8 9 9 9 8 8 8 7 8 7 7 8 7
10 14 15 15 16 15 16 14 14 14 13 12 14 14 13 13 12 10 10 10 8 10 9 8 8 8 7 8 8 7 7 7
8 9 15 16 15 14 14 13 11 10 12 12 11 12 13 13 13 13 10 11 9 9 9 9 8 7 7 6 8 7 6 6
7 9 10 12 12 14 14 13 13 13 12 13 13 12 13 13 12 13 12 11 10 9 8 8 8 7 7 7 7 7 7 7
19 7 1 9 10 12 14 13 13 14 14 14 13 12 11 12 13 12 12 12 10 9 9 7 7 7 6 7 7 8 9 8
18 16 5 2 5 12 14 14 15 16 15 14 13 13 13 13 13 13 12 11 11 10 9 9 7 5 10 11 9 8 9 8
17 14 12 5 8 13 15 16 14 15 15 13 13 15 15 13 14 14 13 13 11 10 9 9 7 6 11 11 13 7 8 7
18 16 14 12 8 10 12 14 17 16 15 17 15 14 16 15 14 14 13 11 11 10 9 8 8 6 11 11 13 8 7 6
Wind_Direction
179 176 176 170 151 152 141 130 125 113 105 94 76 78 71 76 87 90 90 94 98 96 89 88 89 96 88 75 83 56 94 110
152 151 149 141 142 147 152 146 149 138 133 119 94 114 97 71 64 80 92 98 98 105 98 85 75 88 109 96 83 96 76 75
154 154 156 163 159 161 159 158 160 157 143 127 125 139 98 107 98 85 90 96 100 95 100 91 79 91 79 64 73 110 82 21
164 167 172 168 170 170 168 167 165 153 133 119 93 86 78 77 62 77 79 99 93 98 93 93 83 81 86 80 90 99 122 33
171 175 178 179 178 168 165 161 163 159 155 141 157 155 154 163 136 120 97 97 97 97 95 91 88 83 82 78 61 85 101 119
180 185 186 184 169 168 162 167 171 166 165 157 151 137 118 119 118 116 105 89 93 92 96 93 87 82 81 81 71 72 64 98
192 189 174 181 175 171 174 175 179 170 164 163 159 147 146 142 142 127 123 107 99 101 99 95 90 89 87 89 82 75 76 74
189 186 184 181 180 182 177 182 181 171 167 165 156 152 155 154 153 145 142 131 112 120 108 101 94 90 86 84 88 84 73 86
196 199 189 182 178 182 183 183 178 173 163 157 152 148 150 151 150 146 138 133 134 132 112 109 107 101 97 92 91 90 85 79
208 204 200 187 186 187 185 181 178 172 163 155 154 148 148 154 142 128 133 126 128 117 111 112 106 105 104 103 99 99 90 88
211 204 199 199 196 189 182 182 176 166 156 159 154 148 144 143 144 139 144 136 124 130 119 117 118 114 112 109 106 95 103 95
214 204 188 184 175 179 173 175 162 162 159 162 154 151 146 145 145 147 148 134 139 137 131 130 130 126 120 111 113 107 100 102
206 194 171 177 173 169 172 168 169 167 161 159 159 150 149 147 145 150 149 144 137 139 136 131 134 131 124 128 127 116 120 114
217 181 184 179 175 170 169 168 167 157 147 145 149 150 152 152 151 147 147 141 133 134 131 135 139 135 128 120 125 125 113 108
227 172 172 173 168 168 164 162 151 148 149 149 150 156 158 153 150 147 145 143 136 134 133 132 137 134 133 132 127 120 112 104
356 358 259 165 161 160 154 152 162 162 160 154 155 149 149 147 146 147 142 142 139 136 128 125 129 135 140 135 129 122 119 113
355 354 359 250 187 164 161 164 169 167 166 160 151 147 147 153 152 147 144 139 139 138 139 141 134 133 132 135 130 130 134 135
346 344 336 251 204 184 181 172 166 168 163 153 163 159 154 156 154 150 148 150 146 149 143 141 141 136 138 136 135 135 141 144
341 332 323 304 230 210 187 182 172 171 170 155 170 170 156 154 155 154 150 151 155 155 149 150 144 154 151 146 135 128 121 129